EZY91FG EGGP-LEPA

Flight info

Callsign EZY91FG
Flight time N/A
Altitude 37000
Route NANTI L8 STAFA P18 TELBA L151 KIDLI UN859 SOPIL DCT BALAN DCT EVPOK DCT NARAK DCT GAI DCT LOMRA DCT ROCAN DCT IBRAP N13 LORES
Aircraft A320/M-SDE3FGHIRWY/LB1

Departure

Time 2026-05-06 12:35
Airport Liverpool John Lennon Airport (EGGP)

Arrival

Time N/A
Airport Palma de Mallorca Airport (LEPA)
Time Latitude Longitude Altitude Speed Heading
2026-05-06 12:10 53.33632 -2.85190 86 ft 0 kts 265°
2026-05-06 12:26 53.33632 -2.85189 85 ft 1 kts 265°
2026-05-06 12:26 53.33634 -2.85135 85 ft 4 kts 265°
2026-05-06 12:26 53.33635 -2.85100 87 ft 4 kts 259°
2026-05-06 12:27 53.33639 -2.85078 85 ft 4 kts 213°
2026-05-06 12:27 53.33660 -2.85074 90 ft 4 kts 175°
2026-05-06 12:27 53.33669 -2.85076 85 ft 0 kts 175°
2026-05-06 12:30 53.33650 -2.85073 85 ft 7 kts 175°
2026-05-06 12:30 53.33589 -2.85066 85 ft 8 kts 175°
2026-05-06 12:30 53.33538 -2.85074 88 ft 7 kts 211°
2026-05-06 12:31 53.33520 -2.85184 84 ft 12 kts 266°
2026-05-06 12:31 53.33514 -2.85320 88 ft 11 kts 266°
2026-05-06 12:31 53.33508 -2.85452 84 ft 14 kts 265°
2026-05-06 12:31 53.33500 -2.85605 89 ft 13 kts 265°
2026-05-06 12:32 53.33492 -2.85786 84 ft 16 kts 266°
2026-05-06 12:32 53.33483 -2.85968 89 ft 15 kts 265°
2026-05-06 12:32 53.33476 -2.86140 84 ft 14 kts 265°
2026-05-06 12:32 53.33469 -2.86295 84 ft 12 kts 265°
2026-05-06 12:33 53.33463 -2.86428 87 ft 11 kts 265°
2026-05-06 12:33 53.33455 -2.86592 71 ft 18 kts 265°
2026-05-06 12:33 53.33383 -2.86728 68 ft 17 kts 192°
2026-05-06 12:33 53.33291 -2.86629 69 ft 16 kts 103°
2026-05-06 12:34 53.33290 -2.86565 76 ft 6 kts 86°
2026-05-06 12:34 53.33309 -2.86166 69 ft 71 kts 85°
2026-05-06 12:34 53.33367 -2.84892 87 ft 137 kts 86°
2026-05-06 12:34 53.33434 -2.83214 468 ft 154 kts 86°
2026-05-06 12:35 53.33511 -2.81411 1200 ft 156 kts 86°
2026-05-06 12:35 53.33557 -2.79517 1614 ft 173 kts 98°
2026-05-06 12:35 53.32974 -2.77642 1903 ft 197 kts 138°
2026-05-06 12:35 53.31715 -2.76591 2320 ft 211 kts 157°
2026-05-06 12:36 53.30336 -2.75412 2687 ft 235 kts 147°
2026-05-06 12:36 53.28900 -2.73862 3200 ft 255 kts 144°
2026-05-06 12:36 53.27433 -2.72191 3999 ft 261 kts 144°
2026-05-06 12:36 53.25919 -2.70466 4921 ft 266 kts 144°
2026-05-06 12:37 53.24376 -2.68735 5798 ft 270 kts 145°
2026-05-06 12:37 53.22799 -2.66992 6675 ft 273 kts 145°
2026-05-06 12:37 53.21197 -2.65243 7518 ft 277 kts 146°
2026-05-06 12:37 53.19566 -2.63477 8362 ft 282 kts 146°
2026-05-06 12:38 53.17914 -2.61679 9182 ft 286 kts 145°
2026-05-06 12:38 53.16204 -2.59708 10006 ft 290 kts 144°
2026-05-06 12:38 53.14585 -2.57782 10447 ft 308 kts 144°
2026-05-06 12:38 53.12758 -2.55586 10736 ft 330 kts 144°
2026-05-06 12:39 53.10860 -2.53312 11313 ft 340 kts 144°
2026-05-06 12:39 53.08941 -2.51030 12013 ft 345 kts 144°
2026-05-06 12:39 53.06949 -2.48673 12735 ft 350 kts 145°
2026-05-06 12:39 53.04950 -2.46315 13432 ft 354 kts 145°
2026-05-06 12:40 53.02931 -2.43937 14115 ft 358 kts 145°
2026-05-06 12:40 53.00891 -2.41538 14772 ft 361 kts 146°
2026-05-06 12:40 52.98827 -2.39113 15436 ft 364 kts 146°
2026-05-06 12:40 52.96745 -2.36675 16076 ft 368 kts 146°
2026-05-06 12:41 52.94644 -2.34219 16713 ft 372 kts 146°
2026-05-06 12:41 52.92521 -2.31738 17321 ft 375 kts 146°
2026-05-06 12:41 52.90374 -2.29257 17904 ft 378 kts 149°
2026-05-06 12:41 52.88028 -2.27289 18471 ft 379 kts 161°
2026-05-06 12:42 52.85486 -2.26165 19013 ft 379 kts 173°
2026-05-06 12:42 52.82859 -2.25915 19565 ft 380 kts 185°
2026-05-06 12:42 52.80247 -2.26544 20110 ft 380 kts 195°
2026-05-06 12:42 52.77668 -2.27553 20651 ft 382 kts 195°
2026-05-06 12:43 52.75074 -2.28555 21156 ft 385 kts 195°
2026-05-06 12:43 52.72494 -2.29544 21657 ft 387 kts 195°
2026-05-06 12:43 52.69820 -2.30220 22130 ft 393 kts 185°
2026-05-06 12:43 52.67075 -2.30009 22596 ft 398 kts 173°
2026-05-06 12:44 52.64377 -2.28868 23051 ft 404 kts 161°
2026-05-06 12:44 52.61848 -2.26818 23493 ft 409 kts 149°
2026-05-06 12:44 52.59470 -2.24211 23920 ft 412 kts 148°
2026-05-06 12:44 52.57077 -2.21584 24346 ft 415 kts 148°
2026-05-06 12:45 52.54634 -2.18919 24781 ft 417 kts 148°
2026-05-06 12:45 52.52244 -2.16320 25176 ft 419 kts 148°
2026-05-06 12:45 52.47358 -2.11008 25967 ft 424 kts 148°
2026-05-06 12:46 52.44894 -2.08334 26345 ft 426 kts 148°
2026-05-06 12:46 52.42417 -2.05647 26707 ft 428 kts 148°
2026-05-06 12:46 52.39930 -2.02949 27067 ft 430 kts 148°
2026-05-06 12:46 52.37428 -2.00237 27435 ft 432 kts 148°
2026-05-06 12:47 52.34913 -1.97519 27789 ft 434 kts 148°
2026-05-06 12:47 52.32388 -1.94800 28146 ft 436 kts 148°
2026-05-06 12:47 52.29846 -1.92070 28486 ft 438 kts 148°
2026-05-06 12:47 52.27292 -1.89324 28816 ft 440 kts 148°
2026-05-06 12:48 52.24731 -1.86571 29148 ft 442 kts 148°
2026-05-06 12:48 52.22157 -1.83813 29450 ft 444 kts 148°
2026-05-06 12:48 52.19572 -1.81048 29749 ft 446 kts 148°
2026-05-06 12:48 52.16975 -1.78270 30034 ft 447 kts 148°
2026-05-06 12:49 52.14369 -1.75479 30316 ft 449 kts 148°
2026-05-06 12:49 52.11754 -1.72683 30573 ft 451 kts 148°
2026-05-06 12:49 52.09125 -1.69878 30840 ft 452 kts 148°
2026-05-06 12:49 52.06486 -1.67068 31087 ft 454 kts 148°
2026-05-06 12:50 52.03836 -1.64252 31325 ft 456 kts 148°
2026-05-06 12:50 52.01182 -1.61428 31663 ft 456 kts 148°
2026-05-06 12:50 51.98532 -1.58620 32017 ft 454 kts 148°
2026-05-06 12:50 51.95885 -1.55827 32350 ft 454 kts 148°
2026-05-06 12:51 51.93239 -1.53046 32690 ft 453 kts 149°
2026-05-06 12:51 51.90594 -1.50272 33014 ft 452 kts 149°
2026-05-06 12:51 51.87953 -1.47504 33339 ft 452 kts 149°
2026-05-06 12:51 51.85316 -1.44738 33654 ft 451 kts 149°
2026-05-06 12:52 51.82683 -1.41968 33969 ft 451 kts 149°
2026-05-06 12:52 51.80057 -1.39206 34279 ft 450 kts 148°
2026-05-06 12:52 51.77366 -1.36654 34588 ft 448 kts 156°
2026-05-06 12:52 51.74485 -1.34769 34854 ft 446 kts 164°
2026-05-06 12:53 51.71524 -1.33281 35112 ft 446 kts 165°
2026-05-06 12:53 51.68566 -1.31789 35368 ft 446 kts 164°
2026-05-06 12:53 51.65609 -1.30290 35609 ft 446 kts 164°
2026-05-06 12:53 51.62650 -1.28785 35844 ft 446 kts 164°
2026-05-06 12:54 51.59697 -1.27286 36081 ft 445 kts 164°
2026-05-06 12:54 51.56810 -1.25828 36299 ft 446 kts 164°
2026-05-06 12:54 51.53848 -1.24333 36518 ft 446 kts 164°
2026-05-06 12:54 51.51889 -1.23346 36665 ft 446 kts 164°
2026-05-06 12:55 51.47988 -1.21118 37025 ft 445 kts 157°
2026-05-06 12:55 51.45182 -1.19043 37307 ft 442 kts 157°
2026-05-06 12:55 51.42392 -1.16982 37555 ft 441 kts 157°
2026-05-06 12:55 51.39618 -1.14940 37742 ft 441 kts 157°
2026-05-06 12:56 51.36828 -1.12891 37917 ft 441 kts 157°
2026-05-06 12:56 51.31242 -1.08788 37999 ft 442 kts 157°
2026-05-06 12:57 51.25657 -1.04699 37999 ft 442 kts 157°
2026-05-06 12:57 51.20065 -1.00625 37999 ft 442 kts 157°
2026-05-06 12:58 51.14531 -0.96609 37998 ft 442 kts 157°
2026-05-06 12:58 51.08837 -0.92490 37999 ft 442 kts 157°
2026-05-06 12:59 51.03236 -0.88432 38000 ft 443 kts 157°
2026-05-06 12:59 50.97630 -0.84369 38001 ft 443 kts 157°
2026-05-06 13:00 50.92019 -0.80327 38003 ft 443 kts 157°
2026-05-06 13:00 50.86398 -0.76296 38001 ft 444 kts 155°
2026-05-06 13:01 50.81118 -0.71195 37996 ft 445 kts 149°
2026-05-06 13:01 50.75914 -0.65888 37994 ft 445 kts 148°
2026-05-06 13:02 50.70708 -0.60590 37991 ft 445 kts 149°
2026-05-06 13:02 50.65493 -0.55316 37989 ft 445 kts 149°
2026-05-06 13:03 50.60270 -0.50052 37989 ft 445 kts 149°
2026-05-06 13:03 50.55050 -0.44808 37988 ft 445 kts 149°
2026-05-06 13:04 50.50676 -0.40410 37988 ft 445 kts 149°
2026-05-06 13:04 50.45452 -0.35159 37990 ft 446 kts 149°
2026-05-06 13:05 50.40222 -0.29930 37991 ft 446 kts 149°
2026-05-06 13:05 50.34990 -0.24729 37990 ft 446 kts 149°
2026-05-06 13:06 50.29757 -0.19526 37990 ft 446 kts 149°
2026-05-06 13:06 50.24486 -0.14298 37990 ft 445 kts 149°
2026-05-06 13:07 50.19256 -0.09116 37989 ft 445 kts 149°
2026-05-06 13:07 50.14023 -0.03954 37988 ft 445 kts 149°
2026-05-06 13:08 50.08557 0.00466 37985 ft 441 kts 163°
2026-05-06 13:08 50.02630 0.02892 37984 ft 440 kts 167°
2026-05-06 13:09 49.96692 0.05223 37981 ft 440 kts 167°
2026-05-06 13:09 49.90749 0.07566 37981 ft 441 kts 167°
2026-05-06 13:10 49.84803 0.09911 37980 ft 441 kts 167°
2026-05-06 13:10 49.78854 0.12234 37980 ft 441 kts 167°
2026-05-06 13:11 49.72905 0.14542 37980 ft 441 kts 167°
2026-05-06 13:11 49.66957 0.16854 37966 ft 441 kts 167°
2026-05-06 13:12 49.61017 0.19244 37977 ft 441 kts 166°
2026-05-06 13:12 49.55045 0.21687 37979 ft 441 kts 166°
2026-05-06 13:13 49.49107 0.24083 37981 ft 441 kts 166°
2026-05-06 13:13 49.43164 0.26443 37982 ft 441 kts 166°
2026-05-06 13:14 49.37223 0.28805 37983 ft 441 kts 166°
2026-05-06 13:14 49.31248 0.31190 37985 ft 441 kts 166°
2026-05-06 13:15 49.25331 0.33639 37983 ft 441 kts 166°
2026-05-06 13:15 49.19420 0.36152 37979 ft 440 kts 165°
2026-05-06 13:16 49.13519 0.38664 37979 ft 440 kts 166°
2026-05-06 13:16 49.07610 0.41157 37977 ft 440 kts 166°
2026-05-06 13:17 49.02662 0.43227 37967 ft 440 kts 166°
2026-05-06 13:17 48.95958 0.46003 37962 ft 440 kts 166°
2026-05-06 13:18 48.91012 0.48058 37964 ft 440 kts 166°
2026-05-06 13:18 48.84105 0.50926 37964 ft 440 kts 166°
2026-05-06 13:19 48.78198 0.53377 37967 ft 440 kts 166°
2026-05-06 13:19 48.72274 0.55734 37970 ft 440 kts 167°
2026-05-06 13:20 48.66337 0.58033 37958 ft 440 kts 167°
2026-05-06 13:20 48.60401 0.60327 37967 ft 441 kts 167°
2026-05-06 13:21 48.54456 0.62641 37977 ft 441 kts 166°
2026-05-06 13:21 48.48518 0.64985 37977 ft 441 kts 166°
2026-05-06 13:22 48.42593 0.67409 37978 ft 441 kts 166°
2026-05-06 13:22 48.36669 0.69844 37975 ft 441 kts 166°
2026-05-06 13:23 48.30747 0.72253 37960 ft 441 kts 166°
2026-05-06 13:23 48.24818 0.74643 37964 ft 441 kts 166°
2026-05-06 13:24 48.18885 0.76990 37979 ft 441 kts 166°
2026-05-06 13:24 48.12949 0.79321 37977 ft 441 kts 166°
2026-05-06 13:25 48.06978 0.81657 37968 ft 440 kts 166°
2026-05-06 13:25 48.01096 0.83953 37962 ft 440 kts 166°
2026-05-06 13:26 47.95164 0.86256 37963 ft 440 kts 167°
2026-05-06 13:26 47.89196 0.88580 37966 ft 440 kts 167°
2026-05-06 13:27 47.83269 0.90888 37964 ft 440 kts 167°
2026-05-06 13:27 47.77343 0.93187 37969 ft 440 kts 167°
2026-05-06 13:28 47.71417 0.95483 37959 ft 440 kts 167°
2026-05-06 13:28 47.65493 0.97775 37963 ft 440 kts 167°
2026-05-06 13:29 47.59568 1.00047 37964 ft 440 kts 167°
2026-05-06 13:29 47.53643 1.02319 37959 ft 440 kts 167°
2026-05-06 13:30 47.47721 1.04588 37966 ft 439 kts 167°
2026-05-06 13:30 47.41746 1.06346 37950 ft 437 kts 178°
2026-05-06 13:31 47.35680 1.06285 37958 ft 436 kts 182°
2026-05-06 13:31 47.29617 1.06130 37959 ft 436 kts 182°
2026-05-06 13:32 47.23515 1.05984 37948 ft 436 kts 182°
2026-05-06 13:32 47.17445 1.05849 37951 ft 436 kts 182°
2026-05-06 13:33 47.11375 1.05712 37946 ft 436 kts 182°
2026-05-06 13:33 47.05303 1.05574 37954 ft 436 kts 182°
2026-05-06 13:34 47.00258 1.05449 37953 ft 436 kts 182°
2026-05-06 13:34 46.94157 1.05188 37947 ft 436 kts 183°
2026-05-06 13:35 46.88098 1.04887 37956 ft 435 kts 183°
2026-05-06 13:35 46.82043 1.04613 37950 ft 435 kts 183°
2026-05-06 13:36 46.75988 1.04365 37953 ft 435 kts 183°
2026-05-06 13:36 46.70010 1.04114 37951 ft 436 kts 183°
2026-05-06 13:37 46.63952 1.03860 37954 ft 435 kts 183°
2026-05-06 13:37 46.57897 1.03601 37944 ft 436 kts 183°
2026-05-06 13:38 46.51836 1.03524 37956 ft 437 kts 176°
2026-05-06 13:38 46.45864 1.05255 37948 ft 438 kts 168°
2026-05-06 13:39 46.39925 1.07256 37942 ft 438 kts 169°
2026-05-06 13:39 46.33982 1.09234 37948 ft 438 kts 169°
2026-05-06 13:40 46.28038 1.11219 37950 ft 438 kts 169°
2026-05-06 13:40 46.22097 1.13194 37946 ft 438 kts 169°
2026-05-06 13:41 46.16118 1.15164 37942 ft 438 kts 169°
2026-05-06 13:41 46.10182 1.17123 37942 ft 437 kts 169°
2026-05-06 13:42 46.04249 1.19086 37942 ft 437 kts 169°
2026-05-06 13:42 45.98321 1.21042 37939 ft 437 kts 169°
2026-05-06 13:43 45.92392 1.22992 37939 ft 437 kts 169°
2026-05-06 13:43 45.86470 1.24934 37940 ft 436 kts 169°
2026-05-06 13:44 45.80551 1.26871 37939 ft 436 kts 169°
2026-05-06 13:44 45.74637 1.28804 37937 ft 436 kts 170°
2026-05-06 13:45 45.68730 1.30721 37933 ft 435 kts 170°
2026-05-06 13:45 45.59866 1.33601 37931 ft 435 kts 170°
2026-05-06 13:46 45.53955 1.35510 37931 ft 436 kts 170°
2026-05-06 13:46 45.48044 1.37414 37932 ft 436 kts 170°
2026-05-06 13:47 45.42128 1.39320 37932 ft 436 kts 170°
2026-05-06 13:47 45.36218 1.41236 37934 ft 436 kts 170°
2026-05-06 13:48 45.30311 1.43142 37932 ft 435 kts 170°
2026-05-06 13:48 45.24402 1.45033 37929 ft 435 kts 170°
2026-05-06 13:49 45.18493 1.46913 37930 ft 435 kts 170°
2026-05-06 13:49 45.12579 1.48796 37934 ft 435 kts 170°
2026-05-06 13:50 45.06633 1.50693 37936 ft 435 kts 171°
2026-05-06 13:50 45.00726 1.52581 37939 ft 435 kts 171°
2026-05-06 13:51 44.94815 1.54463 37938 ft 435 kts 171°
2026-05-06 13:51 44.88906 1.56328 37940 ft 435 kts 171°
2026-05-06 13:52 44.82995 1.58193 37941 ft 435 kts 171°
2026-05-06 13:52 44.77084 1.60054 37940 ft 435 kts 171°
2026-05-06 13:53 44.71173 1.61902 37946 ft 435 kts 171°
2026-05-06 13:53 44.65269 1.63750 37954 ft 435 kts 171°
2026-05-06 13:54 44.59363 1.65606 37951 ft 435 kts 171°
2026-05-06 13:54 44.53461 1.67446 37953 ft 434 kts 171°
2026-05-06 13:55 44.47564 1.69285 37957 ft 434 kts 172°
2026-05-06 13:55 44.41673 1.71119 37951 ft 434 kts 172°
2026-05-06 13:56 44.35777 1.72960 37952 ft 434 kts 172°
2026-05-06 13:56 44.29882 1.74790 37964 ft 433 kts 172°
2026-05-06 13:57 44.23968 1.76309 37964 ft 431 kts 175°
2026-05-06 13:57 44.18039 1.77520 37965 ft 431 kts 176°
2026-05-06 13:58 44.12106 1.78734 37969 ft 431 kts 176°
2026-05-06 13:58 44.06186 1.80024 37979 ft 431 kts 175°
2026-05-06 13:59 44.00263 1.81349 37978 ft 431 kts 175°
2026-05-06 13:59 43.94338 1.82612 37979 ft 430 kts 178°
2026-05-06 14:00 43.88399 1.83334 37982 ft 427 kts 181°
2026-05-06 14:00 43.82467 1.83752 37983 ft 427 kts 181°
2026-05-06 14:01 43.76496 1.84220 37982 ft 427 kts 181°
2026-05-06 14:01 43.70566 1.84793 37982 ft 427 kts 180°
2026-05-06 14:02 43.64638 1.85394 37981 ft 427 kts 180°
2026-05-06 14:02 43.58715 1.85981 37985 ft 427 kts 180°
2026-05-06 14:03 43.52791 1.86546 37989 ft 427 kts 180°
2026-05-06 14:03 43.46869 1.87111 37987 ft 426 kts 180°
2026-05-06 14:04 43.40948 1.87673 37987 ft 426 kts 180°
2026-05-06 14:04 43.35032 1.88239 37987 ft 426 kts 180°
2026-05-06 14:05 43.29125 1.88807 37985 ft 425 kts 181°
2026-05-06 14:05 43.23220 1.89373 37984 ft 425 kts 181°
2026-05-06 14:06 43.17319 1.89930 37978 ft 425 kts 181°
2026-05-06 14:06 43.11426 1.90491 37965 ft 424 kts 181°
2026-05-06 14:07 43.05538 1.91049 37959 ft 424 kts 181°
2026-05-06 14:07 42.99662 1.91611 37963 ft 423 kts 181°
2026-05-06 14:08 42.93792 1.92169 37964 ft 422 kts 181°
2026-05-06 14:08 42.88885 1.92630 37970 ft 422 kts 181°
2026-05-06 14:09 42.83025 1.93182 37971 ft 421 kts 181°
2026-05-06 14:09 42.77181 1.93731 37971 ft 421 kts 181°
2026-05-06 14:10 42.71341 1.94292 37966 ft 420 kts 181°
2026-05-06 14:10 42.65530 1.95310 37968 ft 427 kts 171°
2026-05-06 14:11 42.59794 1.97384 37964 ft 426 kts 171°
2026-05-06 14:11 42.54061 1.99451 37954 ft 426 kts 171°
2026-05-06 14:12 42.48330 2.01501 37957 ft 425 kts 172°
2026-05-06 14:12 42.42614 2.03543 37954 ft 425 kts 172°
2026-05-06 14:13 42.36902 2.05594 37955 ft 425 kts 172°
2026-05-06 14:13 42.31197 2.07631 37945 ft 423 kts 172°
2026-05-06 14:14 42.25464 2.09657 37939 ft 423 kts 172°
2026-05-06 14:14 42.19773 2.11671 37950 ft 423 kts 172°
2026-05-06 14:15 42.14081 2.13689 37948 ft 423 kts 172°
2026-05-06 14:15 42.08389 2.15696 37942 ft 423 kts 172°
2026-05-06 14:16 42.02693 2.17710 37951 ft 423 kts 172°
2026-05-06 14:16 41.97005 2.19723 37944 ft 423 kts 172°
2026-05-06 14:17 41.91313 2.21714 37949 ft 422 kts 172°
2026-05-06 14:17 41.85623 2.23694 37953 ft 422 kts 172°
2026-05-06 14:18 41.79936 2.25684 37954 ft 423 kts 172°
2026-05-06 14:18 41.74247 2.27665 37951 ft 422 kts 172°
2026-05-06 14:19 41.68568 2.29658 37955 ft 422 kts 172°
2026-05-06 14:19 41.62886 2.31647 37948 ft 422 kts 172°
2026-05-06 14:20 41.57210 2.33616 37953 ft 421 kts 172°
2026-05-06 14:20 41.51537 2.35586 37939 ft 421 kts 172°
2026-05-06 14:21 41.45867 2.37549 37948 ft 421 kts 172°
2026-05-06 14:21 41.40165 2.39515 37951 ft 420 kts 172°
2026-05-06 14:22 41.34498 2.41472 37948 ft 420 kts 172°
2026-05-06 14:22 41.28843 2.43427 37955 ft 420 kts 172°
2026-05-06 14:23 41.23188 2.45373 37946 ft 420 kts 172°
2026-05-06 14:23 41.17534 2.47326 37952 ft 420 kts 172°
2026-05-06 14:24 41.11879 2.49262 37947 ft 419 kts 173°
2026-05-06 14:24 41.06229 2.51184 37945 ft 419 kts 173°
2026-05-06 14:25 41.00581 2.53112 37950 ft 419 kts 173°
2026-05-06 14:25 40.94934 2.55044 37946 ft 419 kts 173°
2026-05-06 14:26 40.89292 2.56971 37949 ft 419 kts 173°
2026-05-06 14:26 40.83642 2.58887 37940 ft 419 kts 173°
2026-05-06 14:27 40.77989 2.60798 37940 ft 419 kts 173°
2026-05-06 14:27 40.72336 2.62713 37939 ft 420 kts 173°
2026-05-06 14:28 40.66646 2.64635 37935 ft 419 kts 173°
2026-05-06 14:28 40.61028 2.66540 37939 ft 420 kts 173°
2026-05-06 14:29 40.55369 2.68445 37940 ft 420 kts 173°
2026-05-06 14:29 40.49704 2.70580 37936 ft 427 kts 164°
2026-05-06 14:30 40.44402 2.74299 37936 ft 433 kts 158°
2026-05-06 14:30 40.39125 2.78137 37935 ft 434 kts 159°
2026-05-06 14:31 40.33840 2.81958 37946 ft 434 kts 159°
2026-05-06 14:31 40.28549 2.85775 37948 ft 434 kts 159°
2026-05-06 14:32 40.23260 2.89586 37947 ft 434 kts 159°
2026-05-06 14:32 40.17934 2.93426 37942 ft 434 kts 159°
2026-05-06 14:33 40.12647 2.97230 37957 ft 434 kts 159°
2026-05-06 14:33 40.07321 3.00887 37953 ft 425 kts 168°
2026-05-06 14:34 40.04498 3.01691 37942 ft 409 kts 184°
2026-05-06 14:34 40.01722 3.01431 37939 ft 395 kts 199°
2026-05-06 14:34 39.96584 2.99220 37940 ft 391 kts 204°
2026-05-06 14:35 39.91864 2.97132 37957 ft 392 kts 204°
2026-05-06 14:35 39.86700 2.94946 37995 ft 393 kts 203°
2026-05-06 14:36 39.85864 2.94602 38001 ft 393 kts 203°